Location: Augustenthal
(51.7167°N, 10.2833°E)
Time: 19:19:59
(UTC+00:00)

Cosmos 1461 - Pass Details

Date: 18 May 2021
Orbit: 510 x 653 km, 65.0° (Epoch: 20 June)

Event Time Altitude Azimuth Distance (km) Brightness Sun altitude
Rises 20:21:42 0° 199° (SSW) 2,964 6.2 -9.1°
Reaches altitude 10° 20:24:06 10° 192° (SSW) 2,054 5.4 -9.4°
Maximum altitude 20:28:30 42° 122° (ESE) 924 3.5 -9.8°
Drops below altitude 10° 20:32:50 10° 52° (NE) 2,026 5.7 -10.2°
Sets 20:35:11 0° 46° (NE) 2,919 6.6 -10.4°
